Weather History for KW99 - September, 2013

Change the Weather History Date:

Friday, September 20, 2013

  Actual Average (KEKN) Record (KEKN)
Temperature  
Mean Temperature 69 °F 61 °F  
Max Temperature 82 °F 72 °F 89 °F (1908)
Min Temperature 56 °F 49 °F 31 °F (1956)
Degree Days  
Heating Degree Days 0 5  
Month to date heating degree days 58  
Since 1 July heating degree days 88  
Cooling Degree Days 4 1  
Month to date cooling degree days 38  
Year to date cooling degree days 464  
Growing Degree Days 19 (Base 50)    
Moisture  
Dew Point 62 °F    
Average Humidity 83    
Maximum Humidity 98    
Minimum Humidity 56    
Precipitation  
Precipitation 0.00 in 0.12 in 1.51 in (1933)
Month to date precipitation 2.46  
Year to date precipitation 35.27  
Snow  
Snow 0.00 in - - ()
Month to date snowfall  
Since 1 September snowfall  
Snow Depth -    
Sea Level Pressure  
Sea Level Pressure 30.03 in    
Wind  
Wind Speed 0 mph (SSW)    
Max Wind Speed 6 mph    
Max Gust Speed -    
Visibility 7 miles    
Events Fog , Rain    
T = Trace of Precipitation, MM = Missing Value Source: NWS Daily Summary

Daily Weather History Graph

Daily Weather History Graph

Search for Another Location

Airport or City:

Trip Planner

Search our weather history database for the weather conditions in past years. The results will help you decide how hot, cold, wet, or windy it might be!

Date:

Astronomy

Sep. 20, 2013 Rise Set
Actual Time 7:02 AM EDT 7:16 PM EDT
Civil Twilight 6:35 AM EDT 7:43 PM EDT
Nautical Twilight 6:04 AM EDT 8:14 PM EDT
Astronomical Twilight 5:32 AM EDT 8:46 PM EDT
Moon 7:50 PM EDT (9/20) 8:14 AM EDT (9/20)
Length of Visible Light 13h 07m
Length of Day
12h 13m
Full, 98% of the Moon is Illuminated
Sep 20
Full
Sep 26
Last Quarter
Oct 4
New
Oct 11
First Quarter
Oct 18
Full

Hourly Weather History & Observations

Time (EDT) Temp. Heat Index Dew Point Humidity Pressure Visibility Wind Dir Wind Speed Gust Speed Precip Events Conditions
12:15 AM 57.7 °F - 56.7 °F 96% 30.11 in 4.0 mi Calm Calm - N/A   Scattered Clouds
12:35 AM 57.4 °F - 56.3 °F 96% 30.11 in 0.2 mi Calm Calm - N/A Fog Fog
12:55 AM 58.1 °F - 57.2 °F 97% 30.11 in 4.0 mi Calm Calm - N/A   Overcast
1:15 AM 58.6 °F - 57.7 °F 97% 30.11 in 0.2 mi Calm Calm - N/A Fog Fog
1:35 AM 58.1 °F - 57.2 °F 97% 30.11 in 0.5 mi Calm Calm - N/A Fog Fog
1:55 AM 58.6 °F - 57.7 °F 97% 30.11 in 0.2 mi Calm Calm - N/A Fog Fog
2:15 AM 57.9 °F - 57.2 °F 97% 30.10 in 0.2 mi Calm Calm - N/A Fog Fog
2:35 AM 58.5 °F - 57.9 °F 98% 30.10 in 0.5 mi Calm Calm - N/A Fog Fog
2:55 AM 57.7 °F - 57.0 °F 97% 30.10 in 1.5 mi Calm Calm - N/A   Overcast
3:15 AM 57.4 °F - 56.7 °F 97% 30.10 in 0.5 mi Calm Calm - N/A Fog Fog
3:35 AM 57.6 °F - 56.8 °F 97% 30.10 in 0.2 mi Calm Calm - N/A Fog Fog
3:55 AM 56.5 °F - 55.8 °F 97% 30.10 in 1.5 mi Calm Calm - N/A   Overcast
4:15 AM 57.2 °F - 56.5 °F 97% 30.10 in 2.0 mi Calm Calm - N/A   Overcast
4:35 AM 56.8 °F - 56.1 °F 97% 30.09 in 1.2 mi Calm Calm - N/A   Overcast
4:55 AM 57.0 °F - 56.3 °F 97% 30.09 in 0.5 mi Calm Calm - N/A Fog Fog
5:15 AM 57.2 °F - 56.5 °F 97% 30.09 in 0.2 mi Calm Calm - N/A Fog Fog
5:35 AM 57.2 °F - 56.5 °F 97% 30.09 in 1.5 mi Calm Calm - N/A   Overcast
5:55 AM 57.4 °F - 56.7 °F 97% 30.09 in 5.0 mi Calm Calm - N/A   Overcast
6:15 AM 57.6 °F - 56.8 °F 97% 30.09 in 7.0 mi Calm Calm - N/A   Overcast
6:35 AM 57.7 °F - 57.2 °F 98% 30.09 in 7.0 mi Calm Calm - N/A   Overcast
6:55 AM 57.9 °F - 57.4 °F 98% 30.09 in 7.0 mi Calm Calm - N/A   Overcast
7:15 AM 57.6 °F - 57.0 °F 98% 30.09 in 7.0 mi Calm Calm - N/A   Overcast
7:35 AM 57.0 °F - 56.3 °F 97% 30.10 in 5.0 mi Calm Calm - N/A   Mostly Cloudy
7:55 AM 56.3 °F - 55.6 °F 97% 30.10 in 7.0 mi Calm Calm - N/A   Scattered Clouds
8:15 AM 56.1 °F - 55.2 °F 97% 30.10 in 7.0 mi Calm Calm - N/A   Scattered Clouds
8:35 AM 58.1 °F - 57.4 °F 97% 30.10 in 10.0 mi Calm Calm - N/A   Mostly Cloudy
8:55 AM 59.0 °F - 58.1 °F 97% 30.10 in 10.0 mi Calm Calm - N/A   Overcast
9:15 AM 60.6 °F - 59.7 °F 97% 30.10 in 10.0 mi Calm Calm - N/A   Overcast
9:35 AM 61.7 °F - 60.6 °F 96% 30.09 in 10.0 mi Calm Calm - N/A   Overcast
9:55 AM 63.5 °F - 61.9 °F 94% 30.07 in 10.0 mi Calm Calm - N/A   Scattered Clouds
10:15 AM 66.6 °F - 62.8 °F 88% 30.07 in 10.0 mi Calm Calm - N/A   Clear
10:35 AM 69.6 °F - 63.3 °F 80% 30.07 in 10.0 mi Calm Calm - N/A   Clear
10:55 AM 71.2 °F - 63.3 °F 76% 30.07 in 10.0 mi Calm Calm - N/A   Clear
11:15 AM 72.5 °F - 63.5 °F 73% 30.06 in 10.0 mi Calm Calm - N/A   Mostly Cloudy
11:35 AM 72.9 °F - 63.9 °F 73% 30.06 in 10.0 mi Calm Calm - N/A   Overcast
11:55 AM 75.2 °F - 64.6 °F 69% 30.05 in 10.0 mi Calm Calm - N/A   Mostly Cloudy
12:15 PM 77.5 °F - 65.3 °F 66% 30.05 in 10.0 mi Calm Calm - N/A   Clear
12:35 PM 77.9 °F - 65.1 °F 65% 30.04 in 10.0 mi Calm Calm - N/A   Clear
12:55 PM 77.9 °F - 64.6 °F 63% 30.03 in 10.0 mi Calm Calm - N/A   Mostly Cloudy
1:15 PM 79.5 °F - 64.6 °F 60% 30.02 in 10.0 mi Calm Calm - N/A   Mostly Cloudy
1:35 PM 80.2 °F 82.0 °F 64.9 °F 59% 30.01 in 10.0 mi Calm Calm - N/A   Scattered Clouds
1:55 PM 80.6 °F 82.3 °F 64.6 °F 58% 30.00 in 10.0 mi Calm Calm - N/A   Clear
2:15 PM 81.3 °F 82.9 °F 64.4 °F 56% 30.00 in 10.0 mi Calm Calm - N/A   Scattered Clouds
2:35 PM 80.6 °F 82.4 °F 64.9 °F 59% 29.99 in 10.0 mi Calm Calm - N/A   Mostly Cloudy
2:55 PM 81.1 °F 82.9 °F 64.9 °F 58% 29.98 in 10.0 mi Calm Calm - N/A   Mostly Cloudy
3:15 PM 81.1 °F 82.7 °F 64.0 °F 56% 29.97 in 10.0 mi Calm Calm - N/A   Mostly Cloudy
3:35 PM 82.0 °F 83.9 °F 65.5 °F 57% 29.96 in 10.0 mi Calm Calm - N/A   Overcast
3:55 PM 81.9 °F 83.9 °F 65.7 °F 58% 29.96 in 10.0 mi Calm Calm - N/A   Mostly Cloudy
4:15 PM 80.8 °F 82.8 °F 65.7 °F 60% 29.96 in 10.0 mi Calm Calm - N/A   Overcast
4:35 PM 80.2 °F 82.5 °F 66.4 °F 63% 29.96 in 10.0 mi Calm Calm - N/A   Overcast
4:55 PM 80.8 °F 82.8 °F 65.8 °F 60% 29.96 in 10.0 mi Calm Calm - N/A   Mostly Cloudy
5:15 PM 79.3 °F - 66.4 °F 64% 29.96 in 10.0 mi Calm Calm - N/A   Scattered Clouds
5:35 PM 78.1 °F - 65.8 °F 66% 29.96 in 10.0 mi Calm Calm - N/A   Overcast
5:55 PM 76.5 °F - 66.2 °F 70% 29.96 in 10.0 mi SSW 5.8 mph - N/A   Overcast
6:15 PM 75.2 °F - 66.6 °F 74% 29.96 in 10.0 mi Calm Calm - N/A Rain Light Rain
6:35 PM 75.4 °F - 66.7 °F 74% 29.95 in 10.0 mi Calm Calm - N/A   Overcast
6:55 PM 75.4 °F - 66.4 °F 73% 29.95 in 10.0 mi Calm Calm - N/A   Overcast
7:15 PM 74.3 °F - 66.6 °F 77% 29.94 in 10.0 mi Calm Calm - N/A   Scattered Clouds
7:35 PM 73.9 °F - 67.5 °F 80% 29.95 in 10.0 mi Calm Calm - N/A   Scattered Clouds
7:55 PM 73.0 °F - 67.1 °F 82% 29.95 in 10.0 mi Calm Calm - N/A   Clear
8:15 PM 72.7 °F - 67.5 °F 84% 29.95 in 10.0 mi Calm Calm - N/A   Clear
8:35 PM 72.1 °F - 67.8 °F 86% 29.96 in 10.0 mi Calm Calm - N/A   Clear
8:55 PM 71.8 °F - 67.3 °F 86% 29.95 in 10.0 mi Calm Calm - N/A   Scattered Clouds
9:15 PM 70.2 °F - 66.6 °F 88% 29.95 in 7.0 mi Calm Calm - N/A   Clear
9:35 PM 68.9 °F - 66.4 °F 92% 29.96 in 7.0 mi Calm Calm - N/A   Clear
9:55 PM 69.8 °F - 67.5 °F 92% 29.96 in 10.0 mi Calm Calm - N/A   Clear
10:15 PM 70.5 °F - 66.6 °F 87% 29.96 in 10.0 mi Calm Calm - N/A   Clear
10:35 PM 69.1 °F - 65.7 °F 89% 29.96 in 7.0 mi Calm Calm - N/A   Clear
10:55 PM 67.5 °F - 64.9 °F 92% 29.95 in 5.0 mi Calm Calm - N/A   Clear
11:15 PM 66.7 °F - 64.6 °F 93% 29.95 in 7.0 mi Calm Calm - N/A   Clear
11:35 PM 66.0 °F - 64.2 °F 94% 29.94 in 5.0 mi Calm Calm - N/A   Clear
11:55 PM 65.1 °F - 63.5 °F 94% 29.94 in 4.0 mi Calm Calm - N/A   Clear